THY2AW LTCD-LTFM

Flight info

Callsign THY2AW
Flight time N/A
Altitude 36000
Route EZN UA4 YAVRU UL615 ERSEN
Aircraft A321/M-SDE3FGHIRWY/LB1

Departure

Time 2026-04-24 10:35
Airport Erzincan Airport (LTCD)

Arrival

Time N/A
Airport İstanbul Airport (LTFM)
Time Latitude Longitude Altitude Speed Heading
2026-04-24 10:15 39.71658 39.52111 3791 ft 0 kts 21°
2026-04-24 10:26 39.71659 39.52111 3790 ft 0 kts 21°
2026-04-24 10:27 39.71654 39.52109 3791 ft 3 kts 21°
2026-04-24 10:27 39.71645 39.52104 3793 ft 0 kts 22°
2026-04-24 10:27 39.71629 39.52096 3797 ft 3 kts 22°
2026-04-24 10:28 39.71610 39.52086 3797 ft 3 kts 21°
2026-04-24 10:28 39.71597 39.52080 3797 ft 1 kts 37°
2026-04-24 10:28 39.71590 39.52073 3793 ft 1 kts 76°
2026-04-24 10:28 39.71589 39.52062 3793 ft 1 kts 102°
2026-04-24 10:29 39.71591 39.52051 3794 ft 1 kts 107°
2026-04-24 10:29 39.71593 39.52041 3796 ft 1 kts 111°
2026-04-24 10:29 39.71595 39.52037 3794 ft 0 kts 112°
2026-04-24 10:30 39.71592 39.52044 3793 ft 4 kts 112°
2026-04-24 10:31 39.71574 39.52102 3793 ft 10 kts 116°
2026-04-24 10:31 39.71526 39.52106 3793 ft 7 kts 209°
2026-04-24 10:31 39.71452 39.52076 3793 ft 14 kts 199°
2026-04-24 10:31 39.71345 39.52027 3792 ft 14 kts 199°
2026-04-24 10:32 39.71279 39.52108 3792 ft 17 kts 110°
2026-04-24 10:32 39.71227 39.52278 3794 ft 23 kts 110°
2026-04-24 10:32 39.71168 39.52491 3795 ft 28 kts 109°
2026-04-24 10:32 39.71092 39.52739 3796 ft 32 kts 111°
2026-04-24 10:33 39.71005 39.53030 3793 ft 37 kts 110°
2026-04-24 10:33 39.70912 39.53358 3794 ft 40 kts 111°
2026-04-24 10:33 39.70812 39.53693 3794 ft 40 kts 110°
2026-04-24 10:33 39.70712 39.54038 3792 ft 34 kts 110°
2026-04-24 10:34 39.70676 39.54252 3794 ft 17 kts 72°
2026-04-24 10:34 39.70647 39.54328 3791 ft 8 kts 214°
2026-04-24 10:34 39.70648 39.54259 3792 ft 0 kts 289°
2026-04-24 10:35 39.70679 39.54147 3793 ft 43 kts 291°
2026-04-24 10:35 39.70878 39.53472 3793 ft 115 kts 291°
2026-04-24 10:35 39.71230 39.52248 3808 ft 170 kts 289°
2026-04-24 10:35 39.71686 39.50838 4496 ft 168 kts 295°
2026-04-24 10:36 39.72253 39.49515 5103 ft 171 kts 300°
2026-04-24 10:36 39.72916 39.48117 5402 ft 193 kts 300°
2026-04-24 10:36 39.73668 39.46553 5662 ft 215 kts 300°
2026-04-24 10:36 39.74496 39.44807 5885 ft 240 kts 300°
2026-04-24 10:37 39.75395 39.42900 6334 ft 255 kts 300°
2026-04-24 10:37 39.76356 39.40847 6789 ft 274 kts 297°
2026-04-24 10:37 39.77361 39.38690 7465 ft 282 kts 296°
2026-04-24 10:37 39.78381 39.36499 8254 ft 284 kts 296°
2026-04-24 10:38 39.79402 39.34302 9088 ft 285 kts 296°
2026-04-24 10:38 39.80427 39.32088 9923 ft 286 kts 296°
2026-04-24 10:38 39.81467 39.29829 10383 ft 301 kts 296°
2026-04-24 10:38 39.82578 39.27400 10589 ft 323 kts 296°
2026-04-24 10:39 39.83749 39.24845 11074 ft 333 kts 296°
2026-04-24 10:39 39.84946 39.22253 11704 ft 335 kts 296°
2026-04-24 10:39 39.86148 39.19654 12364 ft 335 kts 295°
2026-04-24 10:39 39.86988 39.16866 12961 ft 330 kts 276°
2026-04-24 10:40 39.87021 39.13909 13664 ft 327 kts 262°
2026-04-24 10:40 39.86869 39.10949 14351 ft 330 kts 268°
2026-04-24 10:40 39.87139 39.07970 15041 ft 335 kts 279°
2026-04-24 10:40 39.87927 39.05091 15754 ft 341 kts 290°
2026-04-24 10:41 39.88925 39.02284 16503 ft 342 kts 290°
2026-04-24 10:41 39.89925 38.99468 17237 ft 343 kts 290°
2026-04-24 10:41 39.90925 38.96643 17941 ft 344 kts 290°
2026-04-24 10:41 39.91924 38.93808 18578 ft 345 kts 290°
2026-04-24 10:42 39.92873 38.90931 19162 ft 344 kts 284°
2026-04-24 10:42 39.93416 38.87913 19725 ft 341 kts 274°
2026-04-24 10:42 39.93478 38.84837 20298 ft 340 kts 264°
2026-04-24 10:42 39.93267 38.81762 20893 ft 342 kts 263°
2026-04-24 10:43 39.93056 38.78671 21499 ft 343 kts 263°
2026-04-24 10:43 39.92846 38.75570 22061 ft 345 kts 263°
2026-04-24 10:43 39.92638 38.72459 22625 ft 346 kts 263°
2026-04-24 10:43 39.92427 38.69328 23160 ft 348 kts 263°
2026-04-24 10:44 39.92212 38.66180 23651 ft 350 kts 263°
2026-04-24 10:44 39.91995 38.63019 24110 ft 351 kts 263°
2026-04-24 10:44 39.91779 38.59839 24562 ft 353 kts 263°
2026-04-24 10:44 39.91563 38.56652 24980 ft 355 kts 263°
2026-04-24 10:45 39.91349 38.53484 25383 ft 357 kts 264°
2026-04-24 10:45 39.91127 38.50215 25813 ft 358 kts 263°
2026-04-24 10:45 39.90909 38.47017 26232 ft 360 kts 263°
2026-04-24 10:45 39.90683 38.43762 26639 ft 362 kts 264°
2026-04-24 10:46 39.90455 38.40491 27023 ft 363 kts 264°
2026-04-24 10:46 39.90225 38.37212 27399 ft 365 kts 263°
2026-04-24 10:46 39.89993 38.33912 27793 ft 367 kts 264°
2026-04-24 10:46 39.89758 38.30597 28206 ft 369 kts 264°
2026-04-24 10:47 39.89599 38.28343 28475 ft 370 kts 264°
2026-04-24 10:47 39.89362 38.24999 28872 ft 372 kts 264°
2026-04-24 10:47 39.89122 38.21643 29243 ft 373 kts 264°
2026-04-24 10:47 39.88883 38.18315 29603 ft 375 kts 264°
2026-04-24 10:48 39.88641 38.14929 29974 ft 377 kts 264°
2026-04-24 10:48 39.88395 38.11525 30291 ft 379 kts 264°
2026-04-24 10:48 39.88143 38.08100 30611 ft 380 kts 264°
2026-04-24 10:48 39.87888 38.04670 30924 ft 382 kts 264°
2026-04-24 10:49 39.87634 38.01236 31324 ft 380 kts 264°
2026-04-24 10:49 39.87382 37.97816 31756 ft 378 kts 264°
2026-04-24 10:49 39.87133 37.94415 32209 ft 376 kts 264°
2026-04-24 10:49 39.86886 37.91036 32668 ft 374 kts 263°
2026-04-24 10:50 39.86639 37.87672 33100 ft 373 kts 263°
2026-04-24 10:50 39.86393 37.84321 33519 ft 371 kts 263°
2026-04-24 10:50 39.86150 37.80990 33952 ft 369 kts 263°
2026-04-24 10:50 39.85904 37.77670 34312 ft 368 kts 263°
2026-04-24 10:51 39.85657 37.74355 34607 ft 368 kts 263°
2026-04-24 10:51 39.85409 37.71033 34881 ft 369 kts 263°
2026-04-24 10:51 39.85161 37.67707 35147 ft 370 kts 263°
2026-04-24 10:51 39.84911 37.64375 35393 ft 371 kts 263°
2026-04-24 10:52 39.84660 37.61034 35649 ft 372 kts 263°
2026-04-24 10:52 39.84405 37.57685 35893 ft 373 kts 263°
2026-04-24 10:52 39.84148 37.54320 35994 ft 375 kts 263°
2026-04-24 10:53 39.83622 37.47516 36005 ft 379 kts 263°
2026-04-24 10:53 39.83100 37.40688 35999 ft 380 kts 263°
2026-04-24 10:54 39.82560 37.33855 36000 ft 380 kts 263°
2026-04-24 10:54 39.82015 37.27023 36000 ft 380 kts 263°
2026-04-24 10:55 39.81468 37.20187 36005 ft 381 kts 262°
2026-04-24 10:55 39.80917 37.13332 36010 ft 381 kts 262°
2026-04-24 10:56 39.80359 37.06474 36016 ft 382 kts 262°
2026-04-24 10:56 39.79792 36.99613 36019 ft 382 kts 262°
2026-04-24 10:57 39.79224 36.92746 36023 ft 382 kts 262°
2026-04-24 10:57 39.79424 36.85834 36025 ft 387 kts 276°
2026-04-24 10:58 39.80375 36.78934 36022 ft 388 kts 276°
2026-04-24 10:58 39.81311 36.72028 36018 ft 388 kts 276°
2026-04-24 10:59 39.82244 36.65114 36016 ft 388 kts 276°
2026-04-24 10:59 39.83170 36.58197 36008 ft 388 kts 276°
2026-04-24 11:00 39.84099 36.51277 36009 ft 388 kts 276°
2026-04-24 11:00 39.85027 36.44359 36001 ft 388 kts 276°
2026-04-24 11:01 39.85945 36.37446 35992 ft 388 kts 276°
2026-04-24 11:01 39.86894 36.30539 35992 ft 388 kts 276°
2026-04-24 11:02 39.87912 36.23640 35999 ft 388 kts 276°
2026-04-24 11:02 39.88853 36.16724 35994 ft 388 kts 275°
2026-04-24 11:03 39.89746 36.09798 35989 ft 388 kts 275°
2026-04-24 11:03 39.90631 36.02917 35991 ft 388 kts 275°
2026-04-24 11:04 39.91536 35.95990 35984 ft 388 kts 275°
2026-04-24 11:04 39.92445 35.89063 35982 ft 388 kts 275°
2026-04-24 11:05 39.93352 35.82090 35978 ft 388 kts 275°
2026-04-24 11:05 39.94241 35.75195 35979 ft 389 kts 275°
2026-04-24 11:06 39.95133 35.68248 35974 ft 389 kts 275°
2026-04-24 11:06 39.96027 35.61299 35966 ft 389 kts 275°
2026-04-24 11:07 39.97348 35.50868 35967 ft 388 kts 275°
2026-04-24 11:07 39.98218 35.43927 35974 ft 388 kts 275°
2026-04-24 11:08 39.99081 35.36986 35978 ft 388 kts 275°
2026-04-24 11:08 39.99933 35.30027 35969 ft 388 kts 275°
2026-04-24 11:09 40.00761 35.23072 35968 ft 388 kts 275°
2026-04-24 11:09 40.01584 35.16119 35969 ft 388 kts 275°
2026-04-24 11:10 40.02397 35.09162 35966 ft 388 kts 275°
2026-04-24 11:10 40.03204 35.02209 35972 ft 388 kts 275°
2026-04-24 11:11 40.04012 34.95257 35974 ft 387 kts 275°
2026-04-24 11:11 40.04825 34.88305 35975 ft 387 kts 275°
2026-04-24 11:12 40.05626 34.81399 35975 ft 388 kts 275°
2026-04-24 11:12 40.06422 34.74432 35979 ft 388 kts 275°
2026-04-24 11:13 40.07215 34.67458 35982 ft 389 kts 275°
2026-04-24 11:13 40.08007 34.60473 35987 ft 389 kts 275°
2026-04-24 11:14 40.08797 34.53480 35988 ft 389 kts 275°
2026-04-24 11:14 40.09582 34.46482 35990 ft 390 kts 275°
2026-04-24 11:15 40.10366 34.39474 35989 ft 390 kts 275°
2026-04-24 11:15 40.11145 34.32453 35991 ft 390 kts 275°
2026-04-24 11:16 40.11919 34.25432 35989 ft 391 kts 275°
2026-04-24 11:16 40.12686 34.18398 35985 ft 391 kts 274°
2026-04-24 11:17 40.13447 34.11354 35987 ft 392 kts 275°
2026-04-24 11:17 40.14213 34.04305 35984 ft 392 kts 275°
2026-04-24 11:18 40.14973 33.97250 35982 ft 392 kts 275°
2026-04-24 11:18 40.15813 33.90213 35983 ft 393 kts 276°
2026-04-24 11:19 40.16812 33.83189 35979 ft 393 kts 277°
2026-04-24 11:19 40.17672 33.76135 35975 ft 392 kts 274°
2026-04-24 11:20 40.18370 33.69059 35976 ft 393 kts 274°
2026-04-24 11:20 40.19050 33.61965 35976 ft 393 kts 274°
2026-04-24 11:21 40.19764 33.54869 35971 ft 394 kts 274°
2026-04-24 11:21 40.20489 33.47764 35972 ft 394 kts 274°
2026-04-24 11:22 40.21217 33.40645 35976 ft 395 kts 274°
2026-04-24 11:22 40.21928 33.33507 35980 ft 396 kts 274°
2026-04-24 11:23 40.22632 33.26358 35982 ft 396 kts 274°
2026-04-24 11:23 40.23338 33.19192 35986 ft 397 kts 274°
2026-04-24 11:24 40.24047 33.12018 35981 ft 398 kts 276°
2026-04-24 11:24 40.25611 33.05009 35985 ft 403 kts 285°
2026-04-24 11:25 40.27425 32.98069 35986 ft 403 kts 285°
2026-04-24 11:25 40.29230 32.91113 35983 ft 403 kts 285°
2026-04-24 11:26 40.31036 32.84151 35979 ft 404 kts 285°
2026-04-24 11:26 40.32837 32.77174 35982 ft 405 kts 285°
2026-04-24 11:27 40.34638 32.70181 35979 ft 405 kts 285°
2026-04-24 11:27 40.36430 32.63179 35973 ft 406 kts 285°
2026-04-24 11:28 40.38225 32.56157 35971 ft 406 kts 285°
2026-04-24 11:28 40.40022 32.49119 35975 ft 407 kts 285°
2026-04-24 11:29 40.41807 32.42064 35976 ft 408 kts 285°
2026-04-24 11:29 40.43592 32.35006 35973 ft 408 kts 285°
2026-04-24 11:30 40.45371 32.27977 35976 ft 408 kts 285°
2026-04-24 11:30 40.47158 32.20893 35977 ft 409 kts 285°
2026-04-24 11:31 40.49088 32.13852 35980 ft 411 kts 288°
2026-04-24 11:31 40.51213 32.06878 35985 ft 411 kts 289°
2026-04-24 11:32 40.53340 31.99897 35983 ft 412 kts 288°
2026-04-24 11:32 40.55422 31.92879 35985 ft 412 kts 288°
2026-04-24 11:33 40.57133 31.87028 35987 ft 413 kts 288°
2026-04-24 11:33 40.59141 31.79951 35992 ft 412 kts 286°
2026-04-24 11:34 40.60916 31.72782 35990 ft 412 kts 285°
2026-04-24 11:34 40.62632 31.65585 35995 ft 412 kts 285°
2026-04-24 11:35 40.64382 31.58394 35993 ft 413 kts 285°
2026-04-24 11:35 40.66154 31.51188 35993 ft 414 kts 285°
2026-04-24 11:36 40.67927 31.43965 35998 ft 415 kts 285°
2026-04-24 11:36 40.69698 31.36728 35997 ft 415 kts 285°
2026-04-24 11:37 40.71469 31.29478 35998 ft 416 kts 285°
2026-04-24 11:37 40.73233 31.22197 36009 ft 417 kts 285°
2026-04-24 11:38 40.74992 31.14904 36007 ft 418 kts 286°
2026-04-24 11:38 40.76774 31.07548 35982 ft 425 kts 287°
2026-04-24 11:39 40.78569 31.00097 35994 ft 427 kts 287°
2026-04-24 11:39 40.80361 30.92610 36000 ft 428 kts 287°
2026-04-24 11:40 40.82160 30.85106 36005 ft 429 kts 287°
2026-04-24 11:40 40.83949 30.77584 36011 ft 429 kts 287°
2026-04-24 11:41 40.85738 30.70064 36043 ft 428 kts 287°
2026-04-24 11:41 40.87185 30.62473 36032 ft 426 kts 281°
2026-04-24 11:42 40.87760 30.58629 35476 ft 430 kts 281°
2026-04-24 11:42 40.88347 30.54716 34554 ft 437 kts 282°
2026-04-24 11:42 40.88938 30.50752 33704 ft 441 kts 282°
2026-04-24 11:42 40.89530 30.46765 32811 ft 444 kts 282°
2026-04-24 11:43 40.90084 30.42756 31721 ft 443 kts 278°
2026-04-24 11:43 40.90363 30.38685 30401 ft 447 kts 275°
2026-04-24 11:43 40.90616 30.34574 28880 ft 450 kts 275°
2026-04-24 11:43 40.91077 30.30537 28141 ft 436 kts 288°
2026-04-24 11:44 40.92244 30.26962 27886 ft 414 kts 301°
2026-04-24 11:44 40.93989 30.24030 27614 ft 403 kts 316°
2026-04-24 11:44 40.96235 30.21854 27356 ft 401 kts 332°
2026-04-24 11:44 40.98844 30.20556 27090 ft 402 kts 346°
2026-04-24 11:45 41.01601 30.19956 26833 ft 401 kts 349°
2026-04-24 11:45 41.04354 30.19401 26575 ft 399 kts 349°
2026-04-24 11:45 41.07094 30.18838 26313 ft 398 kts 349°
2026-04-24 11:45 41.09823 30.18274 26058 ft 396 kts 349°
2026-04-24 11:46 41.12539 30.17712 25810 ft 394 kts 349°
2026-04-24 11:46 41.15238 30.17150 25565 ft 392 kts 349°
2026-04-24 11:46 41.17927 30.16584 25320 ft 391 kts 349°
2026-04-24 11:46 41.20608 30.16023 25072 ft 389 kts 350°
2026-04-24 11:47 41.23275 30.15467 24835 ft 387 kts 350°
2026-04-24 11:47 41.25933 30.14913 24596 ft 386 kts 350°
2026-04-24 11:47 41.28584 30.14365 24195 ft 384 kts 350°
2026-04-24 11:47 41.31213 30.13752 23680 ft 383 kts 345°
2026-04-24 11:48 41.33725 30.12608 23119 ft 381 kts 335°
2026-04-24 11:48 41.36058 30.10981 22647 ft 377 kts 332°
2026-04-24 11:48 41.38337 30.09354 22152 ft 375 kts 332°
2026-04-24 11:48 41.40630 30.07732 21661 ft 373 kts 332°
2026-04-24 11:49 41.42908 30.06130 21243 ft 368 kts 332°
2026-04-24 11:49 41.45173 30.04541 20766 ft 366 kts 332°
2026-04-24 11:49 41.47417 30.02964 20224 ft 365 kts 332°
2026-04-24 11:49 41.49643 30.01396 19836 ft 359 kts 332°
2026-04-24 11:50 41.51853 29.99835 19391 ft 356 kts 331°
2026-04-24 11:50 41.54003 29.98311 19271 ft 343 kts 331°
2026-04-24 11:50 41.56068 29.96847 19148 ft 330 kts 331°
2026-04-24 11:50 41.58060 29.95434 19004 ft 319 kts 331°
2026-04-24 11:51 41.60003 29.94054 18652 ft 315 kts 331°
2026-04-24 11:51 41.61934 29.92681 18286 ft 312 kts 331°
2026-04-24 11:51 41.63850 29.91317 17821 ft 311 kts 331°
2026-04-24 11:51 41.65751 29.89965 17457 ft 308 kts 331°
2026-04-24 11:52 41.67633 29.88631 17105 ft 305 kts 331°
2026-04-24 11:52 41.69505 29.87302 16749 ft 304 kts 331°
2026-04-24 11:52 41.71368 29.85977 16402 ft 303 kts 331°
2026-04-24 11:52 41.73227 29.84655 16048 ft 302 kts 331°
2026-04-24 11:53 41.75077 29.83332 15685 ft 301 kts 331°
2026-04-24 11:53 41.76919 29.82012 15342 ft 300 kts 331°
2026-04-24 11:53 41.78758 29.80695 14980 ft 299 kts 331°
2026-04-24 11:53 41.80588 29.79387 14623 ft 297 kts 330°
2026-04-24 11:54 41.82250 29.77770 14278 ft 295 kts 314°
2026-04-24 11:54 41.83472 29.75575 13932 ft 295 kts 298°
2026-04-24 11:54 41.84164 29.72990 13480 ft 296 kts 281°
2026-04-24 11:54 41.84325 29.70238 13057 ft 296 kts 273°
2026-04-24 11:55 41.84397 29.67483 12643 ft 295 kts 273°
2026-04-24 11:55 41.84474 29.64739 12236 ft 294 kts 273°
2026-04-24 11:55 41.84551 29.61999 11835 ft 293 kts 273°
2026-04-24 11:55 41.84559 29.59270 11423 ft 293 kts 265°
2026-04-24 11:56 41.84115 29.56604 11027 ft 294 kts 251°
2026-04-24 11:56 41.83220 29.54149 10637 ft 294 kts 243°
2026-04-24 11:56 41.82239 29.51760 10348 ft 289 kts 242°
2026-04-24 11:56 41.81278 29.49446 10225 ft 279 kts 239°
2026-04-24 11:57 41.80024 29.47526 10090 ft 272 kts 219°
2026-04-24 11:57 41.78597 29.45960 10010 ft 260 kts 232°
2026-04-24 11:57 41.77849 29.43792 9965 ft 260 kts 258°
2026-04-24 11:57 41.77402 29.41438 9906 ft 262 kts 255°
2026-04-24 11:58 41.76865 29.39108 9844 ft 262 kts 253°
2026-04-24 11:58 41.76280 29.36794 9784 ft 262 kts 252°
2026-04-24 11:58 41.75675 29.34488 9727 ft 262 kts 252°
2026-04-24 11:58 41.75062 29.32189 9658 ft 263 kts 251°
2026-04-24 11:59 41.74423 29.29791 9529 ft 280 kts 251°
2026-04-24 11:59 41.73765 29.27320 9391 ft 283 kts 252°
2026-04-24 11:59 41.73105 29.24836 9255 ft 283 kts 251°
2026-04-24 11:59 41.72446 29.22352 9123 ft 283 kts 252°
2026-04-24 12:00 41.71791 29.19871 8988 ft 282 kts 252°
2026-04-24 12:00 41.71135 29.17396 8854 ft 282 kts 251°
2026-04-24 12:00 41.70481 29.14925 8712 ft 281 kts 251°
2026-04-24 12:00 41.69826 29.12462 8591 ft 281 kts 251°
2026-04-24 12:01 41.69171 29.10000 8452 ft 280 kts 251°
2026-04-24 12:01 41.68520 29.07542 8229 ft 281 kts 251°
2026-04-24 12:01 41.67869 29.05084 7842 ft 280 kts 252°
2026-04-24 12:01 41.67217 29.02625 7434 ft 281 kts 251°
2026-04-24 12:02 41.66563 29.00166 7028 ft 281 kts 251°
2026-04-24 12:02 41.65916 28.97730 6707 ft 278 kts 251°
2026-04-24 12:02 41.65266 28.95289 6377 ft 275 kts 251°
2026-04-24 12:02 41.64628 28.92902 6097 ft 271 kts 251°
2026-04-24 12:03 41.63995 28.90537 5746 ft 269 kts 251°
2026-04-24 12:03 41.63365 28.88188 5402 ft 268 kts 251°
2026-04-24 12:03 41.62738 28.85856 5068 ft 266 kts 251°
2026-04-24 12:03 41.62111 28.83522 4587 ft 270 kts 251°
2026-04-24 12:04 41.61479 28.81173 4317 ft 265 kts 251°
2026-04-24 12:04 41.60861 28.78870 4171 ft 263 kts 251°